Regional Weather Roundup
Issued by NWS

Home | Current Version | Previous Version | Text Only | Print | Product List | Glossary Off
Versions: 1 2 3 4 5 6 7 8 9 10 11 12 13 14 15 16 17 18 19 20 21 22 23 24 25 26 27 28 29 30 31 32 33 34 35 36 37 38 39 40 41 42 43 44 45 46 47 48 49 50

000
ASUS43 KDMX 261506
RWRIA

WEATHER ROUNDUP FOR IOWA
NATIONAL WEATHER SERVICE DES MOINES IA
1000 AM CDT TUE SEP 26 2017

NOTE: "FAIR" INDICATES FEW OR NO CLOUDS BELOW 12,000 FEET WITH NO
SIGNIFICANT WEATHER AND/OR OBSTRUCTIONS TO VISIBILITY.

* - THESE STATIONS ARE NOT NWS STATIONS...THUS NOT UNDER NWS
QUALITY CONTROL.  THEY ALSO DO NOT REPORT WEATHER SUCH
AS PRECIPITATION OR FOG.

IAZ001>003-012>014-020>022-031>034-043>046-261600-
   NORTHWEST IOWA

CITY           SKY/WX    TMP DP  RH WIND       PRES   REMARKS
CARROLL *      CLOUDY    59  57  94 NW13G20   30.06R
CHEROKEE *     CLOUDY    54  53  98 NW8G16    30.09R
DENISON *      CLOUDY    55  54  94 NW9G16    30.10R
LE MARS *      CLOUDY    52  50  93 NW12      30.11R
ORANGE CITY *  CLOUDY    54  52  94 NW12      30.10R
SHELDON *      CLOUDY    52  50  93 W12       30.07R
SIOUX CITY     CLOUDY    53  51  93 NW12G20   30.11R
SPENCER        CLOUDY    55  53  93 NW14      30.07R
STORM LAKE *   MOSUNNY   54  52  94 NW15      30.08R
$$

IAZ055>058-069>071-079>083-090>094-261600-
   SOUTHWEST IOWA

CITY           SKY/WX    TMP DP  RH WIND       PRES   REMARKS
ATLANTIC *     PTSUNNY   57  55  94 NW13      30.07R
AUDUBON *      CLOUDY    57  54  88 NW10      30.08R
CLARINDA *     CLOUDY    59  59 100 N8G14     30.10R
COUNCIL BLFS * CLOUDY    54  54 100 NW10G16   30.10R
CRESTON *      CLOUDY    61  59  94 NW13G20   30.06R
HARLAN  *      CLOUDY    55  55 100 NW12G18   30.12R
LAMONI         CLOUDY    65  64  97 W15       30.03R
RED OAK *      DRIZZLE   57  55  94 NW10      30.09R
SHENANDOAH *   CLOUDY    59  55  88 NW10G17   30.10R
$$

IAZ047>049-059>061-072>074-084-261600-
   CENTRAL IOWA

CITY           SKY/WX    TMP DP  RH WIND       PRES   REMARKS
AMES           CLOUDY    63  62  97 NW14      30.01R
ANKENY *       CLOUDY    63  61  94 W9        30.02R
BOONE *        CLOUDY    61  59  94 NW12      30.02R
CHARITON *     PTSUNNY   68  68 100 W9        30.00R
DES MOINES     CLOUDY    64  62  93 NW13      30.01R
GRINNELL*      LGT RAIN  66  65  95 CALM      30.00S
KNOXVILLE *    CLOUDY    68  66  94 W8        29.98S
MARSHALLTOWN   LGT RAIN  67  67 100 SW5       29.98R FOG
NEWTON *       CLOUDY    66  66 100 SW7       29.99S FOG
PELLA *        CLOUDY    67  66  97 W3        30.00S
PERRY *        CLOUDY    60  60  99 W7        30.05R
$$

IAZ004>006-015-016-023>025-035-036-261600-
   NORTH CENTRAL IOWA

CITY           SKY/WX    TMP DP  RH WIND       PRES   REMARKS
ALGONA *       PTSUNNY   57  57 100 NW13      30.05R
CLARION *      CLOUDY    59  59 100 NW8G16    30.02R
ESTHERVILLE    CLOUDY    55  54  96 W10       30.04R
FORT DODGE *   CLOUDY    58  55  90 NW8       30.05R
MASON CITY     CLOUDY    59  56  89 NW12      30.02R
FOREST CITY *  CLOUDY    59  59 100 NW7       30.01R
WEBSTER CITY * CLOUDY    59  59 100 NW9       30.01R
IOWA FALLS *   CLOUDY    61  61  99 W12       30.01R
$$

IAZ007>011-017>019-026>030-037>042-050>054-066-261600-
   NORTHEAST IOWA

CITY           SKY/WX    TMP DP  RH WIND       PRES   REMARKS
CEDAR RAPIDS   CLOUDY    71  68  90 SW6       29.97R
CHARLES CITY * CLOUDY    64  64 100 W10G16    29.98R
CLINTON *      CLOUDY   N/A N/A N/A S7        29.95S
DECORAH *      CLOUDY    66  66 100 VRB6      29.95S
DUBUQUE        CLOUDY    71  64  78 CALM      29.97R
MONTICELLO *   PTSUNNY   73  66  78 CALM      29.95S
OELWEIN *      CLOUDY    66  66 100 W9        29.98R FOG
WATERLOO       LGT RAIN  66  65  96 W6        29.97R FOG
$$

IAZ064-065-067-068-078-261600-
   EAST CENTRAL IOWA

CITY           SKY/WX    TMP DP  RH WIND       PRES   REMARKS
DAVENPORT      SUNNY     77  67  71 S7        29.96S
MT. PLEASANT * CLOUDY    74  67  79 W8        29.97R
MUSCATINE *    CLOUDY    77  66  69 SW12      29.96R
QUAD CITIES    SUNNY     78  68  71 VRB3      29.94R HX  80
$$

IAZ062-063-075>077-085>089-095>099-261600-
   SOUTHEAST IOWA

CITY           SKY/WX    TMP DP  RH WIND       PRES   REMARKS
BURLINGTON     SUNNY     77  67  71 SW10      29.96R
FAIRFIELD *    CLOUDY    72  66  83 W7        29.98R
FORT MADISON * MOSUNNY   77  68  73 SW6       29.97R
KEOKUK *       MOSUNNY   77  66  69 SW9       29.96R
OSKALOOSA *    DRIZZLE   66  65  97 MISG      29.99S
OTTUMWA        LGT RAIN  68  66  93 W7        29.98R
WASHINGTON *   PTSUNNY   73  68  83 VRB6      29.98S
$$

ABBREVIATIONS USED IN REMARKS
   TC - TEMPERATURES IN CELSIUS
  WCI - WIND CHILL INDEX
   HX - HEAT INDEX
  VSB - VISIBILITY
$$




USA.gov is the U.S. government's official web portal to all federal, state and local government web resources and services.